Location: Noordwijk
(52.2400°N, 4.4500°E)
Time: 02:00:05
(UTC+00:00)

CAS-4B - Pass Details

Date: 12 December 2022
Orbit: 515 x 531 km, 43.0° (Epoch: 26 January)

Event Time Altitude Azimuth Distance (km) Brightness Sun altitude
Exits shadow 06:42:13 - 253° (WSW) 2,346 ? -8.6°
Reaches altitude 10° 06:44:10 10° 237° (WSW) 1,774 ? -8.3°
Maximum altitude 06:46:42 16° 198° (SSW) 1,427 ? -8.0°
Drops below altitude 10° 06:49:15 10° 159° (SSE) 1,778 ? -7.6°
Sets 06:52:09 0° 138° (SE) 2,669 ? -7.2°
